CT1OY Oeiras PT current weather conditions

sailwx.info

Wind from 037

Air temperature 13.9° C
Dewpoint 6.2° C

Last reported at 2017-Feb-21 00:53 UTC.
Time now 2017-Feb-21 01:17 UTC

Location: N 38°44' W 009°17'.
View on Google Maps.

See reports from other nearby stations

  
Tides and Currents Weather Stations Pressure Air Temp Water Temp Dewpoint Dewpoint Depression Visibility Wind Speed Wind Dir Waves Ship Positions
date/time (UTC)wind fromknots sea level pressurealtimeterstation pressurevisibilityair tempwater tempwave heightnotes
2017-Feb-21 00:53 037 13.9
2017-Feb-20 23:53 066 14.4
2017-Feb-20 23:13 032 14.4
2017-Feb-20 23:03 316 15.0
2017-Feb-20 22:53 097 15.0
2017-Feb-20 22:03 094 15.0
2017-Feb-20 21:23 052 15.0
2017-Feb-20 20:43 049 15.0
2017-Feb-20 19:53 337 15.6
2017-Feb-20 19:23 072 16.1
2017-Feb-20 19:13 012 16.1
2017-Feb-20 18:53 026 16.7
2017-Feb-20 18:33 039 16.7
2017-Feb-20 18:23 287 17.2
2017-Feb-20 18:13 233 17.2
2017-Feb-20 18:03 035 0 17.8
2017-Feb-20 17:23 027 18.9
2017-Feb-20 17:13 281 1 gusting 12 18.9
2017-Feb-20 16:53 327 18.9
2017-Feb-20 16:43 335 4 gusting 12 18.9
2017-Feb-20 16:23 021 18.9
2017-Feb-20 16:03 039 1 19.4
2017-Feb-20 15:53 033 0 19.4
2017-Feb-20 15:43 042 10 gusting 11 18.9
2017-Feb-20 15:33 078 5 gusting 12 18.9
2017-Feb-20 15:13 058 18.9
2017-Feb-20 14:43 129 18.9
2017-Feb-20 14:33 299 18.9
2017-Feb-20 14:03 038 18.3
2017-Feb-20 13:33 131 18.3
2017-Feb-20 13:23 226 18.3
2017-Feb-20 13:13 300 18.3
2017-Feb-20 13:03 075 17.8
2017-Feb-20 12:53 028 17.8
2017-Feb-20 12:43 105 17.8
2017-Feb-20 12:33 314 17.2
2017-Feb-20 12:03 266 2 gusting 13 16.7
2017-Feb-20 11:53 124 16.1
2017-Feb-20 11:43 039 16.1
2017-Feb-20 11:13 018 15.6
2017-Feb-20 11:03 205 15.6
2017-Feb-20 10:53 044 4 gusting 10 15.6
2017-Feb-20 10:13 071 0 13.9
2017-Feb-20 09:53 011 3 13.9
2017-Feb-20 09:43 044 13.3
2017-Feb-20 09:13 029 13.3
2017-Feb-20 09:03 060 0 12.8
2017-Feb-20 08:33 077 12.8
2017-Feb-20 08:23 014 12.8
2017-Feb-20 07:43 027 12.2
2017-Feb-20 07:33 030 12.2
2017-Feb-20 07:13 058 12.2
2017-Feb-20 06:53 005 4 gusting 13 11.7
2017-Feb-20 06:23 079 11.7
2017-Feb-20 06:13 049 11.7
2017-Feb-20 06:03 068 0 11.7
2017-Feb-20 05:53 027 11.7
2017-Feb-20 05:13 025 11.7
2017-Feb-20 05:03 059 12.2
2017-Feb-20 04:43 031 12.2
2017-Feb-20 04:33 042 12.2
2017-Feb-20 04:13 342 12.2
2017-Feb-20 04:03 067 12.2
2017-Feb-20 03:53 059 12.2
2017-Feb-20 03:43 049 12.2
2017-Feb-20 03:33 065 12.2
2017-Feb-20 03:23 077 12.2
2017-Feb-20 03:03 308 12.2
2017-Feb-20 02:53 124 12.2
2017-Feb-20 02:43 043 12.8
2017-Feb-20 02:23 348 12.2
2017-Feb-20 02:13 012 12.2
2017-Feb-20 02:03 037 12.2
2017-Feb-20 01:53 039 12.8
2017-Feb-20 01:43 345 12.8
2017-Feb-20 01:23 039 12.8
2017-Feb-20 01:13 322 12.8
2017-Feb-20 01:03 319 12.8
2017-Feb-20 00:53 006 12.8
2017-Feb-20 00:33 016 13.3
2017-Feb-20 00:23 012 12.8
2017-Feb-20 00:13 013 12.8
2017-Feb-19 23:53 347 12.8
2017-Feb-19 23:33 056 12.8
2017-Feb-19 23:23 329 12.8
2017-Feb-19 23:13 352 12.8
2017-Feb-19 23:03 352 12.8
2017-Feb-19 22:53 005 13.3
2017-Feb-19 22:23 308 13.3
2017-Feb-19 22:13 013 13.3
2017-Feb-19 21:53 052 12.8
2017-Feb-19 21:43 311 12.8
2017-Feb-19 21:33 314 12.8
2017-Feb-19 21:13 309 12.8
2017-Feb-19 21:03 299 12.8
2017-Feb-19 20:43 302 13.3
2017-Feb-19 20:23 277 14.4
2017-Feb-19 20:13 115 13.9
2017-Feb-19 19:53 034 13.9
2017-Feb-19 19:43 284 13.9
2017-Feb-19 19:23 008 14.4
2017-Feb-19 19:13 018 15.0
2017-Feb-19 19:03 034 15.0
2017-Feb-19 18:53 352 15.0
2017-Feb-19 18:23 039 15.6
2017-Feb-19 18:13 056 16.1
2017-Feb-19 18:03 342 16.1
2017-Feb-19 17:43 053 16.7
2017-Feb-19 17:33 349 16.7
2017-Feb-19 17:23 027 17.2
2017-Feb-19 17:03 076 17.2
2017-Feb-19 16:53 010 0 17.2
2017-Feb-19 16:33 068 1 17.8
2017-Feb-19 16:13 010 6 gusting 13 17.8
2017-Feb-19 16:03 071 0 gusting 13 17.2
2017-Feb-19 15:53 072 0 gusting 14 17.2
2017-Feb-19 15:33 083 17.2
2017-Feb-19 15:23 086 17.2
2017-Feb-19 15:13 057 0 gusting 11 17.2
2017-Feb-19 15:03 274 17.2
2017-Feb-19 14:33 051 0 gusting 13 17.2
2017-Feb-19 13:53 270 0 gusting 12 16.7
2017-Feb-19 13:23 355 16.7
2017-Feb-19 13:03 152 16.1
2017-Feb-19 12:23 046 15.6
2017-Feb-19 11:23 051 0 14.4
2017-Feb-19 11:03 359 2 gusting 10 13.3
2017-Feb-19 10:43 141 1 12.8
2017-Feb-19 10:23 025 12.2
2017-Feb-19 09:13 312 4 11.1
2017-Feb-19 09:03 024 10.6
2017-Feb-19 08:53 319 10.6
2017-Feb-19 08:33 060 10.0
2017-Feb-19 08:23 360 9 10.0
2017-Feb-19 07:43 080 0 8.9
2017-Feb-19 07:33 082 8.9
2017-Feb-19 07:23 056 8.9
2017-Feb-19 07:03 026 8.9
2017-Feb-19 06:53 257 8.9
2017-Feb-19 06:43 284 8.9
2017-Feb-19 06:23 218 8.9
2017-Feb-19 06:13 262 8.9
2017-Feb-19 06:03 027 8.9
2017-Feb-19 05:53 291 2 9.4
2017-Feb-19 05:43 113 9.4
2017-Feb-19 05:33 342 8.9
2017-Feb-19 04:53 105 9.4
2017-Feb-19 04:43 332 9.4
2017-Feb-19 04:33 347 3 9.4
2017-Feb-19 04:03 360 9.4
2017-Feb-19 03:53 335 9.4
2017-Feb-19 03:43 316 9.4
2017-Feb-19 03:33 286 9.4
2017-Feb-19 03:13 297 9.4
2017-Feb-19 03:03 034 9.4
2017-Feb-19 02:53 321 9.4
2017-Feb-19 02:43 005 9.4
2017-Feb-19 02:33 301 9.4
2017-Feb-19 02:23 321 9.4
2017-Feb-19 02:13 311 9.4
2017-Feb-19 02:03 274 9.4
2017-Feb-19 01:33 301 10.0
2017-Feb-19 01:13 274 10.0
2017-Feb-19 01:03 352 10.0